Regional Weather Roundup
Issued by NWS

Home | Current Version | Previous Version | Text Only | Print | Product List | Glossary On
Versions: 1 2 3 4 5 6 7 8 9 10 11 12 13 14 15 16 17 18 19 20 21 22 23 24 25 26 27 28 29 30 31 32 33 34 35 36 37 38 39 40 41 42 43 44 45 46 47 48 49 50
000
ASUS43 KTOP 050459
RWRKS

WEATHER ROUNDUP FOR KANSAS
NATIONAL WEATHER SERVICE GOODLAND KS
1200 AM CDT SUN JUL 05 2015

NOTE:  "FAIR" INDICATES FEW OR NO CLOUDS BELOW 12,000 FEET WITH NO
SIGNIFICANT WEATHER AND/OR OBSTRUCTIONS TO VISIBILITY.

KSZ001>006-013>018-027>032-041>047-050600-
NORTHWEST KANSAS

CITY           SKY/WX    TMP DP  RH WIND       PRES   REMARKS
GOODLAND       PTCLDY    76  60  57 SE17      29.92F
HAYS           MOCLDY    77  63  61 SE13      29.92R
HILL CITY      PTCLDY    80  64  58 SE8       29.91R
RUSSELL        PTCLDY    77  64  64 SE14      29.91R
$$

KSZ061>065-074>080-084>089-050600-
SOUTHWEST KANSAS

CITY           SKY/WX    TMP DP  RH WIND       PRES   REMARKS
DODGE CITY     MOCLDY    76  65  68 S17G24    29.95R
ELKHART          N/A     78  58  50 S12         N/A
GARDEN CITY    CLOUDY    77  65  66 SE14      29.93R
GREAT BEND     MOCLDY    75  66  73 SE10      29.94R
LIBERAL        MOCLDY    75  64  69 S10       29.95F
$$

KSZ066>073-081>083-090>101-050600-
SOUTHEAST KANSAS

CITY           SKY/WX    TMP DP  RH WIND       PRES   REMARKS
CHANUTE        CLEAR     73  68  84 E7        29.98S
COFFEYVILLE    PTCLDY    76  69  79 SE6       29.97R
HUTCHINSON     PTCLDY    77  65  66 SE12      29.95R
MEDICINE LODGE   N/A     79  65  62 S9        29.94R
NEWTON         CLEAR     73  63  68 SE8       29.99R
PARSONS        CLEAR     76  69  79 SE3       29.99R
WICHITA INTL   PTCLDY    78  65  63 SE10      29.95R
WICHITA JABRA  CLEAR     76  65  68 SE9       29.96R
WINFIELD       PTCLDY    78  66  66 SE7       29.97S
$$

KSZ007>012-019>026-033>040-048>060-102>105-050600-
NORTHEAST KANSAS

CITY           SKY/WX    TMP DP  RH WIND       PRES   REMARKS
CONCORDIA      MOCLDY    73  64  73 SE10      29.94R
EMPORIA        CLEAR     71  65  81 SE9       29.98R
LAWRENCE       CLEAR     68  64  87 SE6       29.99R
MANHATTAN      PTCLDY    74  66  76 SE6       29.95R
OLATHE IND     CLEAR     70  65  84 SE5       30.01R
OLATHE EXE     CLEAR     69  63  81 SE6       30.00R
SALINA         CLEAR     78  63  59 SE12      29.93R
TOPEKA BILLARD CLEAR     71  65  81 E5        29.98R
TOPEKA FORBES  CLEAR     71  65  81 SE6       29.98R
$$



USA.gov is the U.S. government's official web portal to all federal, state and local government web resources and services.